Weather History for Laconia, NH

Change the Weather History Date:

Tuesday, October 30, 2012

  Actual Average Record
Temperature  
Mean Temperature 60 °F -  
Max Temperature 66 °F 52 °F 75 °F (1989)
Min Temperature 55 °F 33 °F 26 °F (2002)
Degree Days  
Heating Degree Days 4    
Growing Degree Days 10 (Base 50)    
Moisture  
Dew Point 55 °F    
Average Humidity 81    
Maximum Humidity 88    
Minimum Humidity 68    
Precipitation  
Precipitation 1.01 in - - ()
Sea Level Pressure  
Sea Level Pressure 29.52 in    
Wind  
Wind Speed 15 mph (East)    
Max Wind Speed 21 mph    
Max Gust Speed 36 mph    
Visibility 9 miles    
Events Thunderstorm    
Averages and records for this station are not official NWS values.
T = Trace of Precipitation, MM = Missing Value Source: NWS Daily Summary

Daily Weather History Graph

Daily Weather History Graph

Search for Another Location

Airport:

Trip Planner

Search our weather history database for the weather conditions in past years. The results will help you decide how hot, cold, wet, or windy it might be!

Date:

Astronomy

Oct. 30, 2012 Rise Set
Actual Time 7:19 AM EDT 5:38 PM EDT
Civil Twilight 6:49 AM EDT 6:08 PM EDT
Nautical Twilight 6:15 AM EDT 6:42 PM EDT
Astronomical Twilight 5:42 AM EDT 7:15 PM EDT
Moon 6:03 PM EDT (10/30) 8:05 AM EDT (10/30)
Length of Visible Light 11h 18m
Length of Day
10h 19m
Full, 99% of the Moon is Illuminated
Oct 30
Full
Nov 6
Last Quarter
Nov 13
New
Nov 20
First Quarter
Nov 28
Full

Hourly Weather History & Observations

Time (EDT) Temp. Dew Point Humidity Pressure Visibility Wind Dir Wind Speed Gust Speed Precip Events Conditions
12:15 AM 59.0 °F 55.4 °F 88% 29.38 in 5.0 mi East 16.1 mph 27.6 mph 0.02 in   Overcast
12:35 AM 59.0 °F 55.4 °F 88% 29.37 in 6.0 mi ENE 17.3 mph 23.0 mph 0.04 in   Overcast
12:55 AM 59.0 °F 55.4 °F 88% 29.38 in 5.0 mi East 18.4 mph 23.0 mph 0.12 in   Overcast
1:15 AM 59.0 °F 55.4 °F 88% 29.39 in 7.0 mi East 17.3 mph 25.3 mph 0.06 in   Overcast
1:35 AM 59.0 °F 55.4 °F 88% 29.39 in 10.0 mi East 16.1 mph 20.7 mph 0.09 in   Overcast
1:55 AM 59.0 °F 55.4 °F 88% 29.39 in 9.0 mi East 18.4 mph 25.3 mph 0.10 in   Overcast
2:15 AM 60.8 °F 55.4 °F 82% 29.40 in 10.0 mi East 12.7 mph - N/A   Overcast
2:35 AM 60.8 °F 57.2 °F 88% 29.40 in 5.0 mi East 16.1 mph 25.3 mph N/A   Overcast
2:55 AM 60.8 °F 57.2 °F 88% 29.41 in 10.0 mi East 18.4 mph 25.3 mph N/A   Overcast
3:55 AM 60.8 °F 57.2 °F 88% 29.42 in 6.0 mi East 12.7 mph 17.3 mph 0.01 in   Overcast
4:15 AM 60.8 °F 57.2 °F 88% 29.42 in 7.0 mi East 11.5 mph 17.3 mph 0.01 in   Overcast
4:55 AM 60.8 °F 55.4 °F 82% 29.42 in 10.0 mi East 18.4 mph 26.5 mph 0.01 in   Overcast
5:15 AM 60.8 °F 55.4 °F 82% 29.44 in 10.0 mi East 19.6 mph 27.6 mph N/A   Overcast
5:35 AM 60.8 °F 55.4 °F 82% 29.45 in 10.0 mi ESE 17.3 mph 23.0 mph 0.01 in   Overcast
5:55 AM 62.6 °F 55.4 °F 77% 29.44 in 10.0 mi East 20.7 mph 27.6 mph 0.01 in   Overcast
6:15 AM 60.8 °F 55.4 °F 82% 29.46 in 10.0 mi East 18.4 mph 24.2 mph N/A   Overcast
6:35 AM 62.6 °F 55.4 °F 77% 29.46 in 10.0 mi ESE 20.7 mph 25.3 mph N/A   Overcast
6:55 AM 60.8 °F 55.4 °F 82% 29.48 in 10.0 mi East 12.7 mph 21.9 mph N/A   Overcast
7:15 AM 60.8 °F 53.6 °F 77% 29.48 in 8.0 mi East 15.0 mph 19.6 mph N/A   Overcast
7:35 AM 60.8 °F 55.4 °F 82% 29.50 in 8.0 mi East 16.1 mph 26.5 mph N/A   Overcast
7:55 AM 60.8 °F 53.6 °F 77% 29.51 in 10.0 mi ESE 15.0 mph 23.0 mph N/A   Overcast
8:15 AM 60.8 °F 53.6 °F 77% 29.52 in 9.0 mi ESE 12.7 mph 23.0 mph N/A   Mostly Cloudy
8:35 AM 60.8 °F 53.6 °F 77% 29.52 in 10.0 mi East 16.1 mph 29.9 mph N/A   Scattered Clouds
8:55 AM 60.8 °F 55.4 °F 82% 29.53 in 10.0 mi East 13.8 mph 25.3 mph N/A   Mostly Cloudy
9:35 AM 60.8 °F 55.4 °F 82% 29.55 in 6.0 mi East 18.4 mph 21.9 mph N/A   Mostly Cloudy
9:55 AM 60.8 °F 55.4 °F 82% 29.56 in 10.0 mi East 12.7 mph 19.6 mph N/A   Overcast
10:15 AM 60.8 °F 55.4 °F 82% 29.56 in 10.0 mi East 13.8 mph 23.0 mph N/A   Mostly Cloudy
10:35 AM 60.8 °F 55.4 °F 82% 29.57 in 10.0 mi East 11.5 mph 25.3 mph N/A   Overcast
10:55 AM 60.8 °F 55.4 °F 82% 29.58 in 10.0 mi ESE 16.1 mph 24.2 mph N/A   Overcast
11:15 AM 60.8 °F 55.4 °F 82% 29.57 in 6.0 mi East 12.7 mph 19.6 mph N/A   Overcast
11:35 AM 62.6 °F 55.4 °F 77% 29.58 in 10.0 mi ESE 13.8 mph 20.7 mph N/A   Mostly Cloudy
11:55 AM 64.4 °F 55.4 °F 73% 29.57 in 10.0 mi ESE 15.0 mph 26.5 mph N/A   Partly Cloudy
12:15 PM 62.6 °F 55.4 °F 77% 29.57 in 10.0 mi ESE 13.8 mph 21.9 mph N/A   Mostly Cloudy
12:35 PM 62.6 °F 55.4 °F 77% 29.58 in 10.0 mi ESE 8.1 mph 23.0 mph N/A   Mostly Cloudy
12:55 PM 64.4 °F 55.4 °F 73% 29.58 in 10.0 mi East 12.7 mph 26.5 mph N/A   Overcast
1:15 PM 64.4 °F 55.4 °F 73% 29.58 in 10.0 mi East 13.8 mph 18.4 mph N/A   Overcast
1:35 PM 64.4 °F 55.4 °F 73% 29.57 in 10.0 mi East 17.3 mph 23.0 mph N/A   Mostly Cloudy
1:55 PM 66.2 °F 55.4 °F 68% 29.58 in 10.0 mi East 12.7 mph 19.6 mph N/A   Partly Cloudy
2:15 PM 66.2 °F 55.4 °F 68% 29.57 in 10.0 mi East 13.8 mph 21.9 mph N/A   Mostly Cloudy
2:35 PM 66.2 °F 55.4 °F 68% 29.57 in 10.0 mi East 18.4 mph 23.0 mph N/A   Mostly Cloudy
2:55 PM 64.4 °F 53.6 °F 68% 29.58 in 10.0 mi East 12.7 mph - N/A   Mostly Cloudy
3:15 PM 64.4 °F 53.6 °F 68% 29.58 in 10.0 mi ESE 10.4 mph 21.9 mph N/A   Overcast
3:35 PM 62.6 °F 55.4 °F 77% 29.58 in 7.0 mi East 10.4 mph - N/A   Overcast
3:55 PM 60.8 °F 55.4 °F 82% 29.58 in 7.0 mi East 9.2 mph - 0.02 in   Overcast
4:15 PM 60.8 °F 55.4 °F 82% 29.58 in 9.0 mi East 5.8 mph - N/A   Overcast
4:35 PM 60.8 °F 55.4 °F 82% 29.57 in 7.0 mi East 6.9 mph - N/A   Overcast
4:55 PM 60.8 °F 55.4 °F 82% 29.57 in 8.0 mi ENE 9.2 mph - N/A   Overcast
5:15 PM 60.8 °F 55.4 °F 82% 29.56 in 10.0 mi ENE 11.5 mph - N/A   Overcast
5:35 PM 60.8 °F 55.4 °F 82% 29.56 in 10.0 mi ENE 12.7 mph - N/A   Overcast
5:55 PM 60.8 °F 55.4 °F 82% 29.56 in 8.0 mi ENE 13.8 mph - N/A   Mostly Cloudy
6:15 PM 60.8 °F 55.4 °F 82% 29.57 in 8.0 mi East 12.7 mph - 0.01 in   Overcast
6:35 PM 60.8 °F 55.4 °F 82% 29.56 in 7.0 mi ENE 13.8 mph - 0.05 in   Overcast
6:55 PM 59.0 °F 55.4 °F 88% 29.56 in 10.0 mi ENE 15.0 mph 18.4 mph 0.06 in   Mostly Cloudy
7:15 PM 59.0 °F 55.4 °F 88% 29.56 in 8.0 mi East 9.2 mph - 0.05 in   Overcast
7:35 PM 59.0 °F 55.4 °F 88% 29.53 in 3.0 mi NE 12.7 mph 18.4 mph 0.44 in   Overcast
7:55 PM 59.0 °F 55.4 °F 88% 29.54 in 10.0 mi NE 8.1 mph - 0.50 in   Overcast
8:15 PM 59.0 °F 55.4 °F 88% 29.53 in 10.0 mi ENE 10.4 mph - N/A   Overcast
8:35 PM 60.8 °F 55.4 °F 82% 29.54 in 10.0 mi ESE 17.3 mph 21.9 mph N/A   Overcast
8:55 PM 60.8 °F 55.4 °F 82% 29.54 in 10.0 mi East 9.2 mph 19.6 mph N/A   Overcast
9:15 PM 60.8 °F 55.4 °F 82% 29.53 in 10.0 mi East 11.5 mph 17.3 mph N/A   Overcast
9:35 PM 60.8 °F 55.4 °F 82% 29.54 in 10.0 mi East 11.5 mph 27.6 mph N/A   Overcast
9:55 PM 60.8 °F 53.6 °F 77% 29.57 in 8.0 mi South 16.1 mph 35.7 mph 0.18 in Thunderstorm Thunderstorm
10:15 PM 57.2 °F 51.8 °F 82% 29.56 in 10.0 mi South 8.1 mph 16.1 mph N/A   Mostly Cloudy
10:35 PM 57.2 °F 50.0 °F 77% 29.56 in 10.0 mi Calm Calm - N/A   Overcast
10:55 PM 55.4 °F 51.8 °F 88% 29.55 in 10.0 mi NNE 9.2 mph - N/A   Scattered Clouds
11:15 PM 55.4 °F 51.8 °F 88% 29.54 in 10.0 mi NNE 8.1 mph - N/A   Clear
11:35 PM 57.2 °F 51.8 °F 82% 29.54 in 10.0 mi North 3.5 mph - N/A   Partly Cloudy
11:55 PM 57.2 °F 51.8 °F 82% 29.53 in 10.0 mi NE 6.9 mph - N/A   Scattered Clouds